[[{"header":{"parameterUnit":"m.s-1","parameterCategory":1,"la1":30.2991,"la2":30.254,"lo1":-89.0895,"lo2":-89.0444,"dy":0.0017,"dx":0.0017,"nx":28,"ny":28,"refTime":"2023-09-14T09:00:00:Z","depth":0,"parameterNumber":2,"parameterNumberName":"U-component_of_WINDS"},"data":[0,0,0,0,0,0,0,0,0,0,0,0,0,0,0,0,0,0,0,0,0,0,0,0,0,0,0,0,0,0,0,0,0,0,0,0,0,0,0,0,0,0,0,0,0,0,0,0,0,0,0,0,0,0,0,0,0,0,-0.4978,-0.4978,0,-0.5009,-0.5009,-0.5009,-0.498,-0.4978,-0.4977,-0.4976,-0.5009,-0.5011,-0.5013,0,0,0,0,0,0,0,0,0,0,0,0,0,-0.4893,-0.4895,-0.4978,-0.4978,-0.4978,-0.5009,-0.5009,-0.5009,-0.498,-0.4978,-0.4977,-0.4976,-0.5009,-0.5011,-0.5013,0,0,0,0,0,0,0,0,0,0,0,0,0,-0.4928,-0.4895,-0.4978,-0.4967,-0.4967,-0.5009,-0.5009,-0.501,-0.498,-0.4978,-0.4977,-0.4975,-0.5008,-0.5011,-0.5014,-0.5068,0,0,-0.5023,-0.5024,0,0,0,0,0,0,0,0,-0.4926,-0.4931,-0.4968,-0.4968,-0.4967,-0.4988,-0.4991,-0.5029,-0.4981,-0.4975,-0.4976,-0.4974,-0.5004,-0.5007,-0.5017,-0.5069,-0.5071,-0.5023,-0.5025,-0.5026,-0.5027,0,0,0,0,0,0,0,-0.4923,-0.4929,-0.499,-0.4969,-0.4968,-0.4961,-0.4964,-0.4998,-0.4999,-0.4975,-0.4973,-0.4977,-0.5003,-0.5014,-0.5017,-0.5071,-0.5023,-0.5026,-0.5028,-0.5029,-0.5169,-0.5171,0,0,0,0,0,0,-0.4922,-0.4927,-0.4989,-0.4991,-0.4942,-0.4964,-0.4967,-0.4984,-0.4999,-0.4999,-0.4979,-0.4976,-0.501,-0.5014,-0.5018,-0.5083,-0.5026,-0.5029,-0.5031,-0.5167,-0.517,-0.5172,0,0,0,0,0,0,-0.492,-0.4928,-0.4988,-0.4959,-0.4966,-0.4967,-0.4986,-0.4985,-0.4996,-0.5001,-0.5001,-0.499,-0.5009,-0.5014,-0.5056,-0.5084,-0.503,-0.5033,-0.5165,-0.5168,-0.5171,-0.5213,0,0,0,0,0,0,-0.4918,-0.4927,-0.4948,-0.4959,-0.4967,-0.5024,-0.4988,-0.4987,-0.5001,-0.4997,-0.5011,-0.5012,-0.5008,-0.5051,-0.5059,-0.5087,-0.5035,-0.5163,-0.5167,-0.517,-0.5209,-0.5217,-0.5223,0,0,0,0,0,-0.4915,-0.4959,-0.4949,-0.4957,-0.4993,-0.5026,-0.5031,-0.5024,-0.5003,-0.5024,-0.5027,-0.5012,-0.5079,-0.5056,-0.5064,-0.5093,-0.5161,-0.5165,-0.517,-0.5205,-0.5215,-0.5223,0,0,0,0,0,0,-0.4951,-0.496,-0.495,-0.4998,-0.5011,-0.5021,-0.5047,-0.5035,-0.5055,-0.5051,-0.5042,-0.5045,-0.5089,-0.5095,-0.5069,-0.5146,-0.5117,-0.5123,-0.5141,-0.515,-0.5157,-0.5156,-0.5038,0,0,0,0,0,-0.4965,-0.4991,-0.4997,-0.5039,-0.5046,-0.5046,-0.506,-0.5053,-0.5067,-0.5073,-0.5079,-0.5093,-0.5118,-0.5134,-0.5157,-0.5209,-0.5212,-0.5233,-0.524,-0.5246,-0.5252,-0.528,-0.529,-0.5186,-0.5186,-0.5186,0,0,-0.4994,-0.5001,-0.5018,-0.5047,-0.5056,-0.5084,-0.5051,-0.5081,-0.5101,-0.5078,-0.5117,-0.5122,-0.5137,-0.5184,-0.5205,-0.5191,-0.5281,-0.5252,-0.5256,-0.5259,-0.5286,-0.5295,-0.5304,-0.5189,-0.5189,-0.5188,0,0,-0.506,-0.5068,-0.5104,-0.5114,-0.5129,-0.5128,-0.5136,-0.5148,-0.515,-0.5189,-0.5172,-0.5196,-0.5238,-0.5249,-0.5261,-0.533,-0.5316,-0.5337,-0.5376,-0.5403,-0.5411,-0.5419,-0.5444,-0.5453,-0.5343,-0.5343,-0.5343,0,-0.5094,-0.5134,-0.5124,-0.5156,-0.5169,-0.5148,-0.5184,-0.5195,-0.5216,-0.5226,-0.5209,-0.5261,-0.5269,-0.5319,-0.5336,-0.5345,-0.5355,-0.5336,-0.5411,-0.5418,-0.5425,-0.5449,-0.5458,-0.5345,-0.5345,-0.5345,-0.5345,0,-0.5175,-0.5203,-0.523,-0.5251,-0.5267,-0.5301,-0.5297,-0.5314,-0.5306,-0.5307,-0.5347,-0.5356,-0.538,-0.5391,-0.5384,-0.5439,-0.543,-0.5412,-0.5382,-0.5437,-0.546,-0.5469,-0.5349,-0.5348,-0.5347,-0.5347,0,0,-0.5267,-0.5281,-0.5291,-0.53,-0.5314,-0.5336,-0.5368,-0.5391,-0.5406,-0.5421,-0.5449,-0.5484,-0.5467,-0.548,-0.5474,-0.5498,-0.5552,-0.5477,-0.5477,-0.5491,-0.5615,-0.5629,-0.564,-0.5543,-0.5544,-0.5546,-0.5614,0,-0.5334,-0.539,-0.5382,-0.5437,-0.5463,-0.5442,-0.5471,-0.5482,-0.5484,-0.5506,-0.5507,-0.5532,-0.5508,-0.5516,-0.5538,-0.5541,-0.5577,-0.5536,-0.5569,-0.557,-0.5567,-0.5651,-0.5667,-0.573,-0.5622,-0.5624,-0.5625,0,-0.542,-0.5438,-0.5495,-0.5504,-0.5515,-0.554,-0.5561,-0.5582,-0.5594,-0.5593,-0.5607,-0.5596,-0.5629,-0.5597,-0.5642,-0.5614,-0.5627,-0.563,-0.5633,-0.5637,-0.5602,-0.5659,-0.5751,-0.5761,-0.5638,-0.5637,-0.5636,0,-0.5482,-0.552,-0.5559,-0.5567,-0.5579,-0.5598,-0.5604,-0.5614,-0.5628,-0.5646,-0.5655,-0.5676,-0.5688,-0.5705,-0.57,-0.5677,-0.5746,-0.5714,-0.5747,-0.5747,-0.5764,-0.5763,-0.586,-0.577,-0.577,-0.577,-0.5769,0,-0.5559,-0.5595,-0.5587,-0.5611,-0.5651,-0.5641,-0.568,-0.5684,-0.5693,-0.5718,-0.5701,-0.5724,-0.5715,-0.5738,-0.5734,-0.5772,-0.5778,-0.5778,-0.5777,-0.5781,-0.5781,-0.579,-0.5786,-0.5772,-0.5771,-0.5771,-0.5771,0,-0.5636,-0.5632,-0.5673,-0.5681,-0.5683,-0.5712,-0.5718,-0.5741,-0.574,-0.5771,-0.5778,-0.5777,-0.5803,-0.5799,-0.5828,-0.5825,-0.5873,-0.5866,-0.5869,-0.5868,-0.5901,-0.5898,-0.6009,-0.6023,-0.5922,-0.5923,-0.5924,0,-0.5686,-0.5713,-0.5723,-0.5738,-0.5745,-0.5769,-0.5783,-0.5774,-0.5789,-0.5805,-0.5826,-0.585,-0.5869,-0.5911,-0.5913,-0.5935,-0.5929,-0.5966,-0.5932,-0.5935,-0.5931,-0.593,-0.5933,-0.5973,-0.5975,-0.5975,-0.5976,0,-0.5775,-0.5772,-0.5792,-0.5812,-0.5829,-0.5845,-0.5859,-0.5872,-0.5864,-0.5882,-0.5908,-0.5923,-0.5951,-0.5976,-0.5996,-0.6002,-0.5988,-0.5986,-0.5995,-0.6,-0.6001,-0.6002,-0.5888,-0.5984,-0.5984,-0.5983,-0.5983,-0.5982,-0.5841,-0.5864,-0.5874,-0.5898,-0.5907,-0.592,-0.5941,-0.5943,-0.5964,-0.5987,-0.598,-0.6009,-0.602,-0.6046,-0.6054,-0.6077,-0.6064,-0.6076,-0.608,-0.6083,-0.6088,-0.5996,-0.6081,-0.608,-0.608,-0.608,-0.608,0,-0.593,-0.5935,-0.5957,-0.5976,-0.5995,-0.5979,-0.5993,-0.601,-0.6036,-0.6047,-0.6065,-0.6095,-0.6118,-0.6121,-0.6143,-0.6161,-0.6155,-0.6167,-0.6167,-0.6168,-0.6098,-0.6089,-0.6172,-0.6172,-0.6172,-0.6172,-0.6172,-0.6172,-0.5979,-0.6017,-0.6014,-0.6057,-0.6062,-0.609,-0.61,-0.6112,-0.612,-0.6154,-0.6173,-0.6175,-0.6183,-0.6205,-0.6225,-0.6226,-0.6235,-0.625,-0.6248,-0.6183,-0.6173,-0.6165,-0.6156,-0.6252,-0.6252,-0.6316,-0.6317,-0.6317]},{"header":{"parameterUnit":"m.s-1","parameterCategory":1,"la1":30.2991,"la2":30.254,"lo1":-89.0895,"lo2":-89.0444,"dy":0.0017,"dx":0.0017,"nx":28,"ny":28,"refTime":"2023-09-14T09:00:00:Z","depth":0,"parameterNumber":3,"parameterNumberName":"V-component_of_WINDS"},"data":[0,0,0,0,0,0,0,0,0,0,0,0,0,0,0,0,0,0,0,0,0,0,0,0,0,0,0,0,0,0,0,0,0,0,0,0,0,0,0,0,0,0,0,0,0,0,0,0,0,0,0,0,0,0,0,0,0,0,-2.7501,-2.7502,0,-2.7559,-2.7559,-2.756,-2.7556,-2.7556,-2.7555,-2.7554,-2.7609,-2.7611,-2.7613,0,0,0,0,0,0,0,0,0,0,0,0,0,-2.7384,-2.7386,-2.7501,-2.7502,-2.7503,-2.7559,-2.7559,-2.756,-2.7557,-2.7556,-2.7555,-2.7554,-2.7608,-2.7611,-2.7614,0,0,0,0,0,0,0,0,0,0,0,0,0,-2.7437,-2.7386,-2.7501,-2.7508,-2.7509,-2.7559,-2.756,-2.756,-2.7557,-2.7556,-2.7554,-2.7553,-2.7607,-2.7611,-2.7614,-2.766,0,0,-2.7624,-2.7626,0,0,0,0,0,0,0,0,-2.7434,-2.7441,-2.7506,-2.7507,-2.7509,-2.7549,-2.7538,-2.7594,-2.7557,-2.7538,-2.7554,-2.7553,-2.759,-2.7595,-2.7608,-2.7662,-2.7665,-2.7625,-2.7627,-2.7628,-2.7629,0,0,0,0,0,0,0,-2.743,-2.7439,-2.7524,-2.7507,-2.7509,-2.7506,-2.7512,-2.7549,-2.757,-2.754,-2.754,-2.7547,-2.759,-2.7605,-2.7609,-2.7665,-2.7624,-2.7627,-2.763,-2.7631,-2.7758,-2.776,0,0,0,0,0,0,-2.7426,-2.7436,-2.7522,-2.7526,-2.7468,-2.7509,-2.7516,-2.7537,-2.757,-2.7574,-2.7548,-2.7547,-2.76,-2.7605,-2.7611,-2.7666,-2.7628,-2.7631,-2.7633,-2.7757,-2.7759,-2.776,0,0,0,0,0,0,-2.7423,-2.7434,-2.752,-2.7481,-2.7492,-2.7513,-2.7536,-2.7539,-2.7554,-2.7576,-2.7579,-2.7559,-2.7599,-2.7606,-2.7648,-2.7668,-2.7633,-2.7636,-2.7755,-2.7758,-2.7759,-2.7776,0,0,0,0,0,0,-2.742,-2.7433,-2.7451,-2.7481,-2.7494,-2.7556,-2.7538,-2.7541,-2.756,-2.7559,-2.7587,-2.7591,-2.7599,-2.7643,-2.7651,-2.7672,-2.7638,-2.7754,-2.7756,-2.7759,-2.7773,-2.7778,-2.7782,0,0,0,0,0,-2.7416,-2.7453,-2.7452,-2.7463,-2.7518,-2.7558,-2.7565,-2.7574,-2.7562,-2.758,-2.7594,-2.759,-2.7664,-2.7647,-2.7656,-2.7678,-2.7752,-2.7756,-2.7759,-2.7772,-2.7777,-2.7782,0,0,0,0,0,0,-2.7424,-2.7457,-2.7457,-2.7505,-2.7529,-2.7557,-2.758,-2.758,-2.7606,-2.7604,-2.7613,-2.7619,-2.766,-2.7674,-2.7653,-2.7723,-2.7707,-2.7712,-2.7713,-2.7719,-2.7723,-2.7718,-2.7641,0,0,0,0,0,-2.7431,-2.7462,-2.7489,-2.7529,-2.7541,-2.7559,-2.7577,-2.7582,-2.7606,-2.7616,-2.7633,-2.7655,-2.7684,-2.7702,-2.773,-2.7776,-2.7781,-2.7795,-2.78,-2.7803,-2.7807,-2.7831,-2.7837,-2.777,-2.777,-2.777,0,0,-2.7447,-2.7469,-2.7488,-2.7531,-2.755,-2.7581,-2.7567,-2.76,-2.7622,-2.762,-2.766,-2.7674,-2.7699,-2.7743,-2.7763,-2.7755,-2.7826,-2.7807,-2.7809,-2.7811,-2.7834,-2.7841,-2.7846,-2.7772,-2.7772,-2.7772,0,0,-2.749,-2.7511,-2.7546,-2.7565,-2.7595,-2.7606,-2.7614,-2.7643,-2.7652,-2.7693,-2.7691,-2.7717,-2.7766,-2.7784,-2.78,-2.785,-2.7846,-2.7858,-2.788,-2.7903,-2.7908,-2.7913,-2.7929,-2.7935,-2.7862,-2.7862,-2.7863,0,-2.7505,-2.7553,-2.7563,-2.7597,-2.7615,-2.7616,-2.7651,-2.7669,-2.7705,-2.7717,-2.7708,-2.7769,-2.7786,-2.7833,-2.7846,-2.7859,-2.7867,-2.7855,-2.7907,-2.7912,-2.7916,-2.7932,-2.7938,-2.7864,-2.7864,-2.7863,-2.7863,0,-2.7569,-2.7601,-2.7626,-2.7662,-2.7683,-2.7717,-2.7732,-2.7752,-2.7755,-2.7767,-2.7807,-2.7828,-2.7859,-2.7871,-2.7874,-2.7918,-2.7912,-2.7905,-2.7888,-2.7924,-2.7938,-2.7945,-2.7865,-2.7865,-2.7865,-2.7864,0,0,-2.7618,-2.766,-2.7669,-2.7685,-2.7717,-2.7741,-2.7775,-2.7806,-2.7823,-2.7847,-2.7874,-2.7916,-2.7909,-2.7927,-2.7932,-2.7953,-2.7989,-2.7943,-2.7943,-2.7949,-2.8037,-2.8041,-2.8048,-2.7988,-2.7989,-2.799,-2.8034,0,-2.7664,-2.7724,-2.7735,-2.7786,-2.7815,-2.7817,-2.7845,-2.7867,-2.7879,-2.7904,-2.7917,-2.7946,-2.7936,-2.7946,-2.7967,-2.798,-2.8006,-2.7977,-2.8011,-2.8012,-2.8003,-2.8056,-2.806,-2.8101,-2.804,-2.8041,-2.8042,0,-2.7725,-2.7752,-2.7807,-2.7835,-2.7848,-2.7873,-2.7902,-2.7928,-2.7952,-2.7959,-2.7979,-2.7981,-2.8014,-2.7997,-2.8041,-2.8021,-2.8035,-2.8044,-2.8046,-2.8048,-2.8028,-2.8058,-2.8115,-2.812,-2.8051,-2.8051,-2.805,0,-2.7753,-2.7804,-2.7843,-2.7857,-2.7891,-2.7908,-2.7923,-2.7946,-2.7964,-2.799,-2.8001,-2.8029,-2.8045,-2.8066,-2.8075,-2.8062,-2.8118,-2.8102,-2.8123,-2.8123,-2.8134,-2.8133,-2.8192,-2.8146,-2.8146,-2.8146,-2.8145,0,-2.7802,-2.7836,-2.7856,-2.788,-2.7917,-2.7928,-2.7964,-2.7978,-2.7999,-2.8024,-2.8027,-2.805,-2.8062,-2.8087,-2.8095,-2.8129,-2.8136,-2.8142,-2.8143,-2.8141,-2.814,-2.8149,-2.8146,-2.8147,-2.8147,-2.8147,-2.8146,0,-2.784,-2.7856,-2.7898,-2.7927,-2.7935,-2.796,-2.7984,-2.8006,-2.8018,-2.805,-2.8058,-2.8076,-2.8106,-2.8118,-2.8154,-2.8159,-2.8198,-2.8198,-2.819,-2.819,-2.821,-2.8207,-2.8276,-2.8285,-2.8234,-2.8234,-2.8235,0,-2.7869,-2.7895,-2.7927,-2.7944,-2.796,-2.7989,-2.8007,-2.8019,-2.8038,-2.8068,-2.8086,-2.8116,-2.814,-2.8187,-2.8202,-2.8229,-2.8228,-2.8251,-2.8232,-2.8229,-2.8227,-2.8225,-2.8227,-2.8254,-2.8254,-2.8255,-2.8255,0,-2.792,-2.7926,-2.7954,-2.7984,-2.8006,-2.803,-2.8053,-2.8067,-2.8083,-2.8104,-2.8134,-2.8153,-2.819,-2.8219,-2.8247,-2.826,-2.8259,-2.8261,-2.8267,-2.8264,-2.8258,-2.826,-2.8197,-2.8259,-2.8258,-2.8258,-2.8258,-2.8258,-2.7953,-2.7975,-2.8001,-2.8031,-2.805,-2.8072,-2.8094,-2.8109,-2.8135,-2.8167,-2.8172,-2.8205,-2.8227,-2.8265,-2.8279,-2.8304,-2.8298,-2.8307,-2.8309,-2.8311,-2.8311,-2.8255,-2.8309,-2.8309,-2.8309,-2.8309,-2.8309,0,-2.8002,-2.8019,-2.8046,-2.8079,-2.8103,-2.8102,-2.8128,-2.8147,-2.8175,-2.8197,-2.8221,-2.8256,-2.8284,-2.8302,-2.8329,-2.8345,-2.8345,-2.8352,-2.835,-2.8353,-2.8316,-2.8307,-2.8351,-2.8351,-2.8351,-2.8351,-2.8351,-2.8351,-2.803,-2.8068,-2.8077,-2.8123,-2.8139,-2.8172,-2.8186,-2.8206,-2.8223,-2.8262,-2.8286,-2.8298,-2.8317,-2.8347,-2.8371,-2.8376,-2.8385,-2.8392,-2.8395,-2.836,-2.8355,-2.8351,-2.8343,-2.8394,-2.8394,-2.843,-2.8431,-2.8431]}]]